Location: Luz Observatory
(34.5000°N, 117.2833°W)
Time: 22:50:19
(UTC-07:00)

Okean 3 Rocket - Visible Passes

Search period start: 30 May 2016 00:00
Search period end: 09 June 2016 00:00
Orbit: 615 x 645 km, 82.5° (Epoch: 30 May)

Date Brightness Start Highest point End Pass type
(mag) Time Alt. Az. Time Alt. Az. Time Alt. Az.
30 May 5.9 00:19:07 19° NW 00:19:07 19° NW 00:21:05 10° NNW visible
30 May 5.1 23:02:18 30° NNE 23:02:18 30° NNE 23:04:41 10° NNE visible
31 May 6.4 00:39:40 10° WNW 00:39:40 10° WNW 00:39:49 10° WNW visible
31 May 4.8 23:22:49 39° N 23:22:49 39° N 23:25:41 10° N visible
01 Jun 5.6 22:05:57 15° ENE 22:05:57 15° ENE 22:07:21 10° NE visible
01 Jun 5.4 23:43:19 28° NW 23:43:19 28° NW 23:46:14 10° NNW visible
02 Jun 4.8 22:26:26 30° ENE 22:26:26 30° ENE 22:29:16 10° NNE visible
03 Jun 6.1 00:03:47 15° WNW 00:03:47 15° WNW 00:05:59 10° NW visible
03 Jun 4.0 22:46:52 58° NNE 22:46:52 58° NNE 22:50:29 10° N visible
04 Jun 5.7 21:29:56 12° ENE 21:29:56 12° ENE 21:31:09 10° ENE visible
04 Jun 4.5 23:07:18 43° WNW 23:07:18 43° WNW 23:11:15 10° N visible
05 Jun 4.8 21:50:19 26° E 21:50:19 26° E 21:53:45 10° NNE visible
05 Jun 5.6 23:27:41 20° W 23:28:05 21° WNW 23:31:26 10° NNW visible
06 Jun 3.6 22:10:41 57° ESE 22:10:50 58° E 22:15:12 10° NNE visible
07 Jun 3.9 22:31:00 53° SW 22:31:45 62° W 22:36:10 10° N visible
08 Jun 5.1 21:13:55 18° ESE 21:14:55 19° E 21:18:03 10° NE visible
08 Jun 5.3 22:51:16 23° WSW 22:52:46 28° WNW 22:56:38 10° NNW visible
